This demonstration page uses our WeatherBlox Daily Observations layout. Learn more.

Left ArrowRight Arrow

34.16533, -84.80231

Hourly Observations for April 16, 2016

Temp ( °F °C ) Dew Point ( °F °C ) Humidity (%) Winds ( mph kmh ) Pressure ( in mb ) Visibility ( mi km ) Precip ( " mm )
12:53 am 00:53 Cloudy 59 15 47 8.3 64 64 ESE 5 7 30.22 1023 10 16 0.00 0.00
1:53 am 01:53 Cloudy 59 15 47 8.3 64 64 E 3 6 30.21 1023 10 16 0.00 0.00
2:53 am 02:53 Cloudy 60 15.6 42 5.6 52 52 E 5 7 30.20 1023 10 16 0.00 0.00
3:53 am 03:53 Cloudy 59 15 41 5 51 51 E 7 11 30.20 1023 10 16 0.00 0.00
4:53 am 04:53 Cloudy 59 15 42 5.6 54 54 VRB 7 11 30.22 1023 10 16 0.00 0.00
5:53 am 05:53 Cloudy 58 14.4 42 5.6 56 56 ESE 8 13 30.22 1024 10 16 0.00 0.00
6:53 am 06:53 Cloudy 58 14.4 42 5.6 56 56 ESE 7 11 30.24 1024 10 16 0.00 0.00
7:53 am 07:53 Mostly Cloudy 58 14.4 42 5.6 56 56 E 9 15 30.26 1025 10 16 0.00 0.00
8:53 am 08:53 Cloudy 58 14.4 42 5.6 56 56 E 8 13 30.27 1025 10 16 0.00 0.00
9:53 am 09:53 Cloudy 61 16.1 43 6.1 52 52 VRB 7 11 30.28 1025 10 16 0.00 0.00
10:53 am 10:53 Mostly Sunny 63 17.2 43 6.1 48 48 ENE 12 19 30.27 1025 10 16 0.00 0.00
11:53 am 11:53 Sunny 66 18.9 42 5.6 42 42 ENE 10 17 30.28 1025 10 16 0.00 0.00
12:53 pm 12:53 Mostly Cloudy 68 20 43 6.1 40 40 E 10 17 30.27 1025 10 16 0.00 0.00
1:53 pm 13:53 Mostly Sunny 69 20.6 42 5.6 38 38 ESE 9 15 30.26 1025 10 16 0.00 0.00
2:53 pm 14:53 Mostly Cloudy 70 21.1 42 5.6 37 37 VRB 7 11 30.25 1024 10 16 0.00 0.00
3:53 pm 15:53 Cloudy 70 21.1 41 5 35 35 ESE 7 11 30.24 1024 10 16 0.00 0.00
4:53 pm 16:53 Mostly Cloudy 72 22.2 42 5.6 34 34 VRB 7 11 30.22 1023 10 16 0.00 0.00
5:53 pm 17:53 Sunny 72 22.2 43 6.1 35 35 SSE 9 15 30.21 1023 10 16 0.00 0.00
6:53 pm 18:53 Sunny 70 21.1 44 6.7 39 39 SE 7 11 30.21 1023 10 16 0.00 0.00
7:53 pm 19:53 Sunny 68 20 42 5.6 39 39 ESE 3 6 30.22 1024 10 16 0.00 0.00
8:53 pm 20:53 Clear 62 16.7 44 6.7 52 52 SE 3 6 30.24 1024 10 16 0.00 0.00
9:53 pm 21:53 Clear 60 15.6 42 5.6 52 52 SE 3 6 30.26 1025 10 16 0.00 0.00
10:53 pm 22:53 Clear 54 12.2 43 6.1 67 67 Calm 30.30 1026 10 16 0.00 0.00
11:53 pm 23:53 Clear 51 10.6 42 5.6 71 71 Calm 30.31 1026 10 16 0.00 0.00

Powered by AerisWeather